This is the latest recevied weather packets stored in our database for station/object IZ1UQG-1. If no packets are shown the sender has not sent any weather packets the latest 10 day(s).
| Time | Temp. | Humidity | Pressure | Rain* | Wind** | Luminosity | Snow |
|---|---|---|---|---|---|---|---|
| 1777140856 | 25.56° C | 38% | 1011.3 hPa | 168.15 mm | - | - | - |
| 1777140556 | 25.56° C | 37% | 1011.4 hPa | 161.04 mm | - | - | - |
| 1777140256 | 26.11° C | 37% | 1011.5 hPa | 157.23 mm | - | - | - |
| 1777139956 | 26.11° C | 37% | 1011.2 hPa | 115.82 mm | - | - | - |
| 1777139656 | 26.11° C | 36% | 1011.3 hPa | 117.35 mm | - | - | - |
| 1777139356 | 26.67° C | 36% | 1011.1 hPa | 120.14 mm | - | - | - |
| 1777139056 | 26.67° C | 35% | 1011.2 hPa | 119.63 mm | - | - | - |
| 1777138756 | 26.67° C | 35% | 1011.2 hPa | 95.76 mm | - | - | - |
| 1777138456 | 27.22° C | 35% | 1011.2 hPa | 96.27 mm | - | - | - |
| 1777138156 | 27.22° C | 34% | 1011.2 hPa | 95.25 mm | - | - | - |
| 1777137856 | 27.78° C | 34% | 1011.1 hPa | 98.3 mm | - | - | - |
| 1777137556 | 27.78° C | 33% | 1011.2 hPa | 72.9 mm | - | - | - |
| 1777137256 | 27.78° C | 33% | 1011.2 hPa | 77.47 mm | - | - | - |
| 1777136956 | 27.78° C | 33% | 1011.1 hPa | 80.26 mm | - | - | - |
| 1777136656 | 28.33° C | 32% | 1011.1 hPa | 78.49 mm | - | - | - |
| 1777136356 | 28.33° C | 32% | 1011.2 hPa | 54.86 mm | - | - | - |
| 1777136056 | 28.33° C | 31% | 1011.2 hPa | 53.85 mm | - | - | - |
| 1777135756 | 28.89° C | 31% | 1011.2 hPa | 50.04 mm | - | - | - |
| 1777135456 | 28.89° C | 31% | 1011.3 hPa | 50.55 mm | - | - | - |
| 1777135156 | 28.89° C | 31% | 1011.3 hPa | 48.51 mm | - | - | - |
| 1777134856 | 28.89° C | 32% | 1011.2 hPa | 47.5 mm | - | - | - |
| 1777134556 | 28.89° C | 32% | 1011.2 hPa | 39.88 mm | - | - | - |
| 1777134256 | 29.44° C | 31% | 1011.3 hPa | 40.89 mm | - | - | - |
| 1777133956 | 29.44° C | 30% | 1011.3 hPa | 38.61 mm | - | - | - |
| 1777133656 | 29.44° C | 30% | 1011.3 hPa | 35.56 mm | - | - | - |
* Rain latest hour (hover to see other rain measurements)
** Current wind speed in m/s (hover to see current wind gust speed)